Regional Weather Roundup
Issued by NWS Green Bay, WI

Home | Current Version | Previous Version | Graphics & Text | Print | Product List | Glossary Off
Versions: 1 2 3 4 5 6 7 8 9 10 11 12 13 14 15 16 17 18 19 20 21 22 23 24 25 26 27 28 29 30 31 32 33 34 35 36 37 38 39 40 41 42 43 44 45 46 47 48 49 50

978
ASUS43 KGRB 301300
RWRGRB

NORTH-CENTRAL AND NORTHEAST WISCONSIN REGIONAL WEATHER ROUNDUP
NATIONAL WEATHER SERVICE GREEN BAY WI
800 AM CDT FRI SEP 30 2016

WIZ005-009-010>012-018-019-301400-
NORTH CENTRAL WISCONSIN

CITY           SKY/WX    TMP DP  RH WIND       PRES   REMARKS
IRONWOOD       FOG       49  49 100 E5        30.45S VSB 1
MANITOWISH WTR NOT AVBL
ARBOR VITAE    NOT AVBL
EAGLE RIVER    NOT AVBL
LAND O LAKES   FOG       50  50 100 N7        30.44S VSB 1/2
RHINELANDER    SUNNY     49  49 100 NE6       30.40S
PHILLIPS       FOG       46  46 100 NE6       30.40F VSB 3/4
ANTIGO         NOT AVBL
TOMAHAWK       SUNNY     46  45  97 CALM      30.40S
MERRILL        CLOUDY    48  48 100 N5        30.38S
$$

WIZ013-073-301400-
NORTHEAST WISCONSIN

CITY           SKY/WX    TMP DP  RH WIND       PRES   REMARKS
IRON MOUNTAIN  MOSUNNY  N/A N/A N/A MISG      30.39S
MARINETTE      MOSUNNY   57  54  89 NE14G20   30.33F
$$

WIZ017-030-035>037-045-301400-
CENTRAL WISCONSIN

CITY           SKY/WX    TMP DP  RH WIND       PRES   REMARKS
MEDFORD        NOT AVBL
WAUSAU         CLOUDY    51  48  89 N6        30.34S
MOSINEE        CLOUDY    52  50  93 N10       30.34S
MARSHFIELD     CLOUDY    54  48  80 NE8       30.33F
WISC RAPIDS    CLOUDY    54  51  90 NE9       30.33S
STEVENS POINT  NOT AVBL
WAUPACA        PTSUNNY   58  55  89 N6        30.30F
SHAWANO        NOT AVBL
CLINTONVILLE   PTSUNNY   55  52  88 N8        30.31S
WAUTOMA        CLOUDY    56  54  93 N7        30.29F
$$

WIZ038-039-048-051-301400-
FOX VALLEY

CITY           SKY/WX    TMP DP  RH WIND       PRES   REMARKS
NWS GREEN BAY  CLOUDY    59  59 100 N14       30.28F
APPLETON       CLOUDY    57  55  94 N14       30.27S
OSHKOSH        CLOUDY    59  56  89 NE15      30.25F
FOND DU LAC    CLOUDY    60  57  89 NE15      30.26S
$$

WIZ022-050-052-301400-
EAST CENTRAL WISCONSIN

CITY           SKY/WX    TMP DP  RH WIND       PRES   REMARKS
EPHRAIM        CLOUDY    60  57  88 NE7G18    30.32S
WASHINGTON ISL NOT AVBL
STURGEON BAY   CLOUDY    62  57  83 NE12      30.31S
MANITOWOC      NOT AVBL
SHEBOYGAN      LGT RAIN  60  56  86 NE18      30.25R
$$

LMZ563-521-522-541>543-301400-
LAKESHORE

STATION/POSITION TIME  TEMP    WIND        PRES    VSBY  WAVE
                       AIR SEA DIR/SP/G                  HT/PER
                 (UTC) (F)     (DEG/KT/KT) (MB)    (MI)  (FT/S)
SHEBOYGAN LKSHOR 1200   61      40/ 17/ 19 1023.7F
KEWAUNEE LKSHORE 1200   62      40/ 11/ 16 1024.6F
N MID LAKE BUOY  1150   63 65   70/ 17/ 21 1026.3F         4/ 5
SISTER BAY LKSHO 1208   62      30/  6/ 11   N/A
CHAMBERS ISLAND  1200   62      20/ 15/ 18 1026.4F
MENOMINEE LKSHOR 1200   59     360/ 15/ 17 1026.0S
$$




USA.gov is the U.S. government's official web portal to all federal, state and local government web resources and services.